NOAA 17 DEB, 48181

Orbit data source: Space-Track

NOAA 17 DEB, 48181 is space debris in SSO originally from a launch on Mon, 24 Jun 2002 UTC launched from the Air Force Western Test Range (AFWTR). Debris objects in space refer to the collection of defunct objects orbiting the Earth. Examples of debris include non-operational satellites, rocket bodies, and fragments generated from explosions, collisions, or faulty payload assembly.

Loading next visibility...
Identifier
48181, 2002-032W
Orbit
SSO
Country
Flag of USUS
Related business
Manufacturer
Unknown
Mission
Spacecraft
Bus & Motor
Unknown
Mass
Unknown
Launch date (UTC)
2002-06-24 (24 years ago)
Launch vehicle
Unknown
Launch site
Air Force Western Test Range (AFWTR)
Object type
Payload
Rocket body
Debris
Shape & HBR
Unknown shape, 0.1 m
Radar Cross Section
Medium (>0.1 m² and <1 m²)

Expand to show TLE details & history
Last TLE update: 3 days ago

TLE from 3 days ago
0 NOAA 17 DEB
1 48181U 02032W   26170.00278575  .00341083  00000-0  71727-2 0  9994
2 48181  98.6894 192.6531 0012503 170.4085 189.7400 15.43928709276249
Epoch: 2026-06-19T00:04Z
TLE epoch observation values (Epoch: 2026-06-19T00:04:00.688Z)
Latitude
-0.00007°
Longitude
-75.58777°
Altitude
446.007 km
Speed
7.64 km/s
True Right ascension
12h 50m 36s
True Declination
0° 00' 00"
Sunlit
Object was in daylight at epoch
Visualization orbit readout
Latitude
Unknown
Longitude
Unknown
Altitude
Unknown
Speed
Unknown
Apparent Right ascension
Unknown
Apparent Declination
Unknown
Sunlit
N/A
Visualization observer readout
Local Sidereal Time
21:38:23
Azimuth
Unknown
Elevation
Unknown
Doppler factor
Unknown
Orbital elements
Apogee altitude
440.036 km
Perigee altitude
423.008 km
Semi-major axis
6,809.659 km
Eccentricity
0.00125
Inclination
98.6894°
RAAN
192.6531°
Arg. of periapsis
170.4085°
True anomaly
189.7158°
Mean anomaly
189.74°
Eccentric anomaly
189.7279°
Mean motion
3.86238 °/min
Orbital period
93.21 mins
BSTAR
0.0071727
Loading maneuver chart data...
Computing Atmospheric mass density...

Documentation

Showing up to 5 results
|